Location: Acequia del Cap
(41.7000°N, 0.6167°E)
Time: 15:17:31
(UTC+00:00)

Meteor 1-28 Rocket - Pass Details

Date: 07 August 2020
Orbit: 503 x 524 km, 97.3° (Epoch: 22 September)

Event Time Altitude Azimuth Distance (km) Brightness Sun altitude
Exits shadow 02:36:17 31° 132° (SE) 920 4.4 -22.1°
Maximum altitude 02:37:45 51° 74° (ENE) 662 3.9 -21.9°
Drops below altitude 10° 02:41:27 10° 358° (N) 1,768 6.5 -21.5°
Sets 02:43:36 0° 354° (N) 2,663 7.4 -21.2°
